[[{"header":{"parameterUnit":"m.s-1","parameterCategory":1,"la1":30.2991,"la2":30.254,"lo1":-89.0895,"lo2":-89.0444,"dy":0.0017,"dx":0.0017,"nx":28,"ny":28,"refTime":"2024-06-16T09:00:00:Z","depth":0,"parameterNumber":2,"parameterNumberName":"U-component_of_WINDS"},"data":[0,0,0,0,0,0,0,0,0,0,0,0,0,0,0,0,0,0,0,0,0,0,0,0,0,0,0,0,0,0,0,0,0,0,0,0,0,0,0,0,0,0,0,0,0,0,0,0,0,0,0,0,0,0,0,0,0,0,-6.6686,-6.6686,0,-6.6685,-6.6685,-6.6685,-6.6536,-6.6533,-6.6529,-6.6525,-6.6526,-6.653,-6.6533,0,0,0,0,0,0,0,0,0,0,0,0,0,-6.6561,-6.6565,-6.6686,-6.6686,-6.6686,-6.6685,-6.6685,-6.6685,-6.6537,-6.6532,-6.6528,-6.6523,-6.6525,-6.6529,-6.6533,0,0,0,0,0,0,0,0,0,0,0,0,0,-6.6594,-6.6566,-6.6686,-6.6612,-6.6605,-6.6685,-6.6685,-6.6685,-6.6538,-6.6532,-6.6526,-6.6521,-6.6523,-6.6529,-6.6534,-6.6685,0,0,-6.6551,-6.6553,0,0,0,0,0,0,0,0,-6.6592,-6.6599,-6.6623,-6.6617,-6.661,-6.6605,-6.6641,-6.6685,-6.654,-6.6564,-6.6525,-6.6518,-6.6557,-6.6559,-6.6572,-6.6685,-6.6685,-6.6551,-6.6555,-6.6557,-6.6559,0,0,0,0,0,0,0,-6.659,-6.6598,-6.6686,-6.6624,-6.6616,-6.6579,-6.6578,-6.6649,-6.6593,-6.6561,-6.655,-6.6552,-6.6552,-6.6567,-6.6571,-6.6685,-6.6551,-6.6556,-6.6559,-6.6562,-6.6922,-6.6928,0,0,0,0,0,0,-6.6598,-6.6597,-6.6686,-6.6686,-6.6586,-6.6587,-6.6584,-6.6613,-6.6592,-6.6583,-6.6557,-6.6545,-6.6561,-6.6565,-6.6571,-6.6745,-6.6557,-6.6562,-6.6565,-6.6916,-6.6924,-6.6931,0,0,0,0,0,0,-6.6596,-6.6607,-6.6686,-6.6638,-6.6646,-6.6595,-6.6628,-6.6616,-6.663,-6.6589,-6.6579,-6.6583,-6.6556,-6.6563,-6.6658,-6.6744,-6.6565,-6.657,-6.6909,-6.6919,-6.6927,-6.7098,0,0,0,0,0,0,-6.6593,-6.6607,-6.6664,-6.6641,-6.6649,-6.6773,-6.6633,-6.662,-6.664,-6.6624,-6.661,-6.6602,-6.6552,-6.665,-6.6663,-6.6748,-6.6574,-6.6901,-6.6913,-6.6924,-6.7084,-6.7112,-6.7135,0,0,0,0,0,-6.6589,-6.6712,-6.6667,-6.6679,-6.6718,-6.6778,-6.6783,-6.6722,-6.6647,-6.6704,-6.6678,-6.6602,-6.6733,-6.6661,-6.6674,-6.6762,-6.6895,-6.691,-6.6923,-6.7073,-6.7106,-6.7135,0,0,0,0,0,0,-6.6747,-6.6708,-6.6657,-6.6777,-6.6782,-6.6753,-6.6822,-6.676,-6.6787,-6.6771,-6.6695,-6.6694,-6.68,-6.6791,-6.6712,-6.6908,-6.6801,-6.6818,-6.691,-6.6941,-6.6966,-6.6966,-6.6579,0,0,0,0,0,-6.6795,-6.6847,-6.681,-6.6919,-6.6924,-6.6874,-6.6897,-6.685,-6.6853,-6.6854,-6.6834,-6.684,-6.6882,-6.6911,-6.6948,-6.7083,-6.7077,-6.715,-6.7175,-6.7196,-6.7212,-6.7283,-6.7314,-6.6977,-6.6977,-6.6977,0,0,-6.6897,-6.6882,-6.6919,-6.6951,-6.6949,-6.7004,-6.6876,-6.694,-6.698,-6.6864,-6.6951,-6.6938,-6.694,-6.7055,-6.7105,-6.705,-6.7304,-6.7215,-6.7232,-6.7236,-6.73,-6.7332,-6.7361,-6.6987,-6.6985,-6.6983,0,0,-6.7108,-6.7103,-6.7192,-6.7194,-6.7193,-6.7158,-6.718,-6.7161,-6.7147,-6.7234,-6.7148,-6.7195,-6.7269,-6.7274,-6.7286,-6.7501,-6.7433,-6.7516,-6.7649,-6.7719,-6.7745,-6.7768,-6.7845,-6.7873,-6.7532,-6.7532,-6.7532,0,-6.7234,-6.7313,-6.7247,-6.7316,-6.7333,-6.723,-6.7321,-6.7325,-6.7337,-6.7351,-6.729,-6.7381,-6.7375,-6.7489,-6.7542,-6.7556,-6.7578,-6.7516,-6.7747,-6.7769,-6.779,-6.7862,-6.7891,-6.7542,-6.7541,-6.754,-6.7539,0,-6.7468,-6.7525,-6.7597,-6.761,-6.7635,-6.7716,-6.7662,-6.7695,-6.7647,-6.7619,-6.771,-6.7699,-6.7731,-6.7755,-6.7709,-6.7865,-6.783,-6.776,-6.765,-6.7833,-6.7899,-6.7926,-6.7556,-6.7553,-6.755,-6.7547,0,0,-6.7778,-6.7753,-6.7781,-6.7786,-6.7778,-6.7821,-6.7897,-6.7928,-6.7958,-6.797,-6.8032,-6.8097,-6.8032,-6.8046,-6.7999,-6.8061,-6.8232,-6.7981,-6.798,-6.8028,-6.8402,-6.8454,-6.8487,-6.8187,-6.8192,-6.8196,-6.8401,0,-6.7982,-6.8109,-6.8052,-6.8185,-6.8237,-6.8141,-6.8207,-6.821,-6.8187,-6.8228,-6.8202,-6.8249,-6.8159,-6.8167,-6.8224,-6.8199,-6.8305,-6.8183,-6.8244,-6.8247,-6.8245,-6.8522,-6.8577,-6.8772,-6.8427,-6.8431,-6.8434,0,-6.8237,-6.8259,-6.8398,-6.8381,-6.84,-6.8461,-6.8485,-6.8525,-6.8527,-6.8505,-6.8522,-6.8462,-6.8536,-6.8429,-6.853,-6.8448,-6.847,-6.8462,-6.8468,-6.847,-6.8351,-6.8531,-6.8832,-6.8861,-6.8475,-6.8471,-6.8469,0,-6.8448,-6.8513,-6.8604,-6.8611,-6.8594,-6.8638,-6.8633,-6.8629,-6.8652,-6.8674,-6.8687,-6.8718,-6.8735,-6.8761,-6.8711,-6.8637,-6.8819,-6.8707,-6.8803,-6.8805,-6.8844,-6.8842,-6.9153,-6.8861,-6.8861,-6.886,-6.886,0,-6.8681,-6.877,-6.8698,-6.8754,-6.8851,-6.8785,-6.8882,-6.8867,-6.8865,-6.8916,-6.8836,-6.8887,-6.8818,-6.8862,-6.8824,-6.8913,-6.8922,-6.8907,-6.8895,-6.8913,-6.8915,-6.8925,-6.891,-6.8868,-6.8866,-6.8865,-6.8863,0,-6.8932,-6.8888,-6.8981,-6.8957,-6.8953,-6.9026,-6.9005,-6.9057,-6.9028,-6.9095,-6.9107,-6.9063,-6.9111,-6.9064,-6.9109,-6.9084,-6.9203,-6.9173,-6.9202,-6.9193,-6.9291,-6.9282,-6.9618,-6.9658,-6.9343,-6.9346,-6.9348,0,-6.9083,-6.9149,-6.9133,-6.9161,-6.9161,-6.9209,-6.9231,-6.917,-6.9197,-6.9204,-6.9255,-6.9296,-6.9325,-6.9407,-6.9379,-6.9414,-6.9383,-6.9498,-6.9387,-6.9403,-6.9383,-6.9379,-6.9385,-6.952,-6.9524,-6.9527,-6.9529,0,-6.9356,-6.9331,-6.9366,-6.9395,-6.9424,-6.9443,-6.9457,-6.9485,-6.9422,-6.9457,-6.9504,-6.9527,-6.9574,-6.9615,-6.9642,-6.9637,-6.9574,-6.9565,-6.9588,-6.9607,-6.9621,-6.9614,-6.9262,-6.9557,-6.9554,-6.9552,-6.9551,-6.955,-6.956,-6.9614,-6.9611,-6.9653,-6.9657,-6.9672,-6.9719,-6.9696,-6.9735,-6.9767,-6.9729,-6.9788,-6.9789,-6.9817,-6.9821,-6.9866,-6.9818,-6.9852,-6.9861,-6.987,-6.9884,-6.9615,-6.9871,-6.987,-6.9869,-6.9869,-6.9868,0,-6.9828,-6.9821,-6.9861,-6.9882,-6.9916,-6.9853,-6.9865,-6.9897,-6.995,-6.9956,-6.9986,-7.0042,-7.0082,-7.0059,-7.0094,-7.0135,-7.0106,-7.0146,-7.0141,-7.0142,-6.9926,-6.9901,-7.0168,-7.0168,-7.0168,-7.0168,-7.0168,-7.0168,-6.9971,-7.0058,-7.0034,-7.0123,-7.0115,-7.0172,-7.0184,-7.0197,-7.0201,-7.0267,-7.03,-7.0284,-7.0279,-7.0313,-7.0347,-7.0339,-7.0356,-7.0406,-7.0388,-7.0186,-7.0157,-7.0128,-7.0105,-7.041,-7.041,-7.0599,-7.06,-7.0602]},{"header":{"parameterUnit":"m.s-1","parameterCategory":1,"la1":30.2991,"la2":30.254,"lo1":-89.0895,"lo2":-89.0444,"dy":0.0017,"dx":0.0017,"nx":28,"ny":28,"refTime":"2024-06-16T09:00:00:Z","depth":0,"parameterNumber":3,"parameterNumberName":"V-component_of_WINDS"},"data":[0,0,0,0,0,0,0,0,0,0,0,0,0,0,0,0,0,0,0,0,0,0,0,0,0,0,0,0,0,0,0,0,0,0,0,0,0,0,0,0,0,0,0,0,0,0,0,0,0,0,0,0,0,0,0,0,0,0,0.7598,0.7598,0,0.7554,0.7553,0.7553,0.7533,0.7533,0.7533,0.7533,0.7485,0.7484,0.7483,0,0,0,0,0,0,0,0,0,0,0,0,0,0.7663,0.7662,0.7598,0.7598,0.7597,0.7554,0.7553,0.7553,0.7533,0.7533,0.7533,0.7533,0.7486,0.7484,0.7482,0,0,0,0,0,0,0,0,0,0,0,0,0,0.7629,0.7662,0.7598,0.7582,0.758,0.7554,0.7553,0.7553,0.7533,0.7533,0.7533,0.7533,0.7486,0.7484,0.7482,0.7469,0,0,0.7476,0.7475,0,0,0,0,0,0,0,0,0.7631,0.7626,0.7585,0.7583,0.7581,0.7549,0.7559,0.7524,0.7533,0.7551,0.7533,0.7533,0.7506,0.7503,0.7494,0.7466,0.7464,0.7476,0.7475,0.7474,0.7473,0,0,0,0,0,0,0,0.7633,0.7628,0.7581,0.7584,0.7582,0.7576,0.7571,0.7552,0.7528,0.7549,0.7547,0.7543,0.7505,0.7496,0.7493,0.7464,0.7476,0.7474,0.7473,0.7472,0.7423,0.7423,0,0,0,0,0,0,0.7638,0.763,0.7582,0.7579,0.7606,0.7575,0.7569,0.7559,0.7529,0.7524,0.7543,0.7542,0.7499,0.7495,0.7491,0.7473,0.7474,0.7472,0.7471,0.7423,0.7423,0.7423,0,0,0,0,0,0,0.764,0.7634,0.7584,0.7604,0.7597,0.7574,0.7562,0.7558,0.7549,0.7524,0.7519,0.7538,0.7499,0.7494,0.7475,0.7471,0.7471,0.7469,0.7423,0.7423,0.7423,0.7438,0,0,0,0,0,0,0.7642,0.7635,0.763,0.7604,0.7596,0.7569,0.7562,0.7557,0.7546,0.7545,0.7518,0.7514,0.7499,0.7478,0.7473,0.7469,0.7468,0.7424,0.7423,0.7423,0.7438,0.7438,0.7439,0,0,0,0,0,0.7644,0.7635,0.763,0.7624,0.759,0.7569,0.7564,0.7548,0.7546,0.754,0.7524,0.7515,0.7473,0.7476,0.747,0.7465,0.7424,0.7423,0.7423,0.7437,0.7438,0.7439,0,0,0,0,0,0,0.766,0.7631,0.7625,0.7608,0.7591,0.7565,0.7558,0.7549,0.7532,0.7531,0.7511,0.7505,0.7488,0.7475,0.7479,0.7451,0.7447,0.7446,0.746,0.7461,0.7461,0.7465,0.7466,0,0,0,0,0,0.7661,0.7647,0.7623,0.761,0.7602,0.7582,0.7572,0.7561,0.7542,0.7535,0.7517,0.7499,0.7481,0.747,0.7453,0.7436,0.743,0.743,0.7431,0.7431,0.743,0.742,0.742,0.7422,0.7422,0.7422,0,0,0.7664,0.7647,0.7639,0.7613,0.7598,0.7584,0.7575,0.756,0.7549,0.7532,0.7513,0.75,0.7478,0.746,0.7451,0.7448,0.7428,0.7431,0.7432,0.743,0.742,0.742,0.742,0.7422,0.7422,0.7422,0,0,0.7662,0.7647,0.7635,0.7621,0.76,0.7587,0.7584,0.756,0.7551,0.7532,0.7519,0.7505,0.7476,0.7461,0.7449,0.7443,0.7433,0.7438,0.7441,0.7431,0.7431,0.7431,0.7429,0.7428,0.7437,0.7437,0.7437,0,0.7667,0.7646,0.763,0.7616,0.7604,0.759,0.7577,0.7564,0.7538,0.753,0.7528,0.7492,0.7476,0.7454,0.7453,0.7444,0.744,0.744,0.7433,0.7432,0.7432,0.7429,0.7429,0.7437,0.7437,0.7437,0.7437,0,0.7654,0.7639,0.7632,0.7608,0.7596,0.7583,0.7564,0.7554,0.7544,0.7531,0.7512,0.7493,0.7472,0.7466,0.7456,0.7443,0.7442,0.7437,0.7433,0.7433,0.743,0.7429,0.7438,0.7438,0.7438,0.7438,0,0,0.7659,0.7628,0.7626,0.7615,0.7591,0.7579,0.7565,0.7545,0.7537,0.752,0.7507,0.7483,0.7478,0.7465,0.7454,0.7446,0.7442,0.7441,0.744,0.7442,0.7427,0.7431,0.743,0.7436,0.7435,0.7435,0.7429,0,0.7653,0.7628,0.7614,0.7595,0.7581,0.7567,0.7555,0.7539,0.7526,0.7512,0.7498,0.7482,0.7476,0.7468,0.746,0.7444,0.7438,0.7444,0.7423,0.7423,0.7429,0.7429,0.7433,0.7428,0.7427,0.7427,0.7427,0,0.7643,0.7627,0.7607,0.7586,0.7579,0.7569,0.755,0.7537,0.7518,0.751,0.7496,0.7485,0.7469,0.7467,0.7445,0.7449,0.744,0.7431,0.743,0.7427,0.7425,0.7426,0.7426,0.7425,0.7425,0.7425,0.7426,0,0.7649,0.7623,0.7607,0.7599,0.7573,0.7566,0.7555,0.7537,0.7526,0.7509,0.7502,0.7484,0.7473,0.7459,0.7443,0.7443,0.7423,0.7419,0.7415,0.7415,0.7411,0.7411,0.7409,0.7405,0.7405,0.7405,0.7405,0,0.7644,0.7632,0.761,0.76,0.7587,0.7571,0.7557,0.7545,0.7529,0.7516,0.7503,0.7492,0.7471,0.7457,0.7444,0.7428,0.7423,0.7415,0.7412,0.7417,0.7418,0.741,0.741,0.7405,0.7405,0.7405,0.7405,0,0.7648,0.7633,0.7615,0.7593,0.7587,0.7578,0.7559,0.7549,0.7536,0.7521,0.7516,0.7496,0.7478,0.7461,0.7437,0.7429,0.7413,0.7408,0.742,0.7418,0.7415,0.7415,0.7407,0.7405,0.7403,0.7403,0.7403,0,0.7646,0.7636,0.7614,0.7605,0.7595,0.7581,0.757,0.7554,0.7543,0.7522,0.7515,0.7497,0.7481,0.7454,0.7437,0.7419,0.7414,0.7412,0.7411,0.7416,0.7414,0.7414,0.7413,0.7413,0.7413,0.7413,0.7413,0,0.7643,0.7636,0.7622,0.7606,0.7594,0.758,0.7565,0.7558,0.7539,0.7528,0.7511,0.7499,0.7476,0.7458,0.7438,0.7426,0.7416,0.7414,0.7412,0.7416,0.7423,0.7419,0.7421,0.7414,0.7414,0.7414,0.7414,0.7414,0.7644,0.7635,0.7618,0.7603,0.7591,0.7578,0.7568,0.7554,0.754,0.752,0.7511,0.7494,0.7476,0.7449,0.7437,0.7423,0.742,0.7417,0.7416,0.7416,0.7417,0.7426,0.7419,0.7419,0.7419,0.7419,0.7419,0,0.7641,0.763,0.7616,0.7596,0.7584,0.7578,0.7561,0.7552,0.7537,0.7521,0.7507,0.7488,0.747,0.7452,0.7434,0.7426,0.7421,0.7422,0.7422,0.742,0.742,0.7424,0.7426,0.7426,0.7426,0.7426,0.7426,0.7426,0.7638,0.7623,0.7615,0.7594,0.7582,0.7566,0.7557,0.7545,0.7533,0.7512,0.7498,0.7487,0.747,0.7451,0.7435,0.743,0.7424,0.7426,0.7419,0.742,0.742,0.7419,0.7422,0.7424,0.7424,0.742,0.742,0.742]}]]